Time,TemperatureF,DewpointF,PressureIn,WindDirection,WindDirectionDegrees,WindSpeedMPH,WindSpeedGustMPH,Humidity,HourlyPrecipIn,Conditions,Clouds,dailyrainin,SolarRadiationWatts/m^2,SoftwareType,DateUTC
2013-10-29 00:43:00,19.0,11.0,-100.00,NNE,26,3.0,9.0,69,0.00,,,0.00,0.000000,,2013-10-29 06:43:00,
2013-10-29 00:52:00,19.0,11.0,-100.00,NNE,26,3.0,9.0,69,0.00,,,0.00,0.000000,,2013-10-29 06:52:00,
2013-10-29 01:01:00,19.0,11.0,-100.00,NNE,26,3.0,9.0,69,0.00,,,0.00,0.000000,,2013-10-29 07:01:00,
2013-10-29 01:02:00,19.0,11.0,-100.00,SSW,208,2.0,6.0,71,0.00,,,0.00,0.000000,,2013-10-29 07:02:00,
2013-10-29 01:44:00,19.0,11.0,-100.00,SSW,208,2.0,6.0,71,0.00,,,0.00,0.000000,,2013-10-29 07:44:00,
2013-10-29 01:55:00,19.0,11.0,-100.00,SSW,208,2.0,6.0,71,0.00,,,0.00,0.000000,,2013-10-29 07:55:00,
2013-10-29 02:02:00,17.0,10.0,-100.00,SW,231,2.0,4.0,72,0.00,,,0.00,0.000000,,2013-10-29 08:02:00,
2013-10-29 02:24:00,17.0,10.0,-100.00,SW,231,2.0,4.0,72,0.00,,,0.00,0.000000,,2013-10-29 08:24:00,
2013-10-29 02:32:00,17.0,10.0,-100.00,SW,231,2.0,4.0,72,0.00,,,0.00,0.000000,,2013-10-29 08:32:00,
2013-10-29 02:42:00,17.0,10.0,-100.00,SW,231,2.0,4.0,72,0.00,,,0.00,0.000000,,2013-10-29 08:42:00,
2013-10-29 02:52:00,17.0,10.0,-100.00,SW,231,2.0,4.0,72,0.00,,,0.00,0.000000,,2013-10-29 08:52:00,
2013-10-29 03:02:00,18.0,11.0,-100.00,NW,312,2.0,4.0,75,0.00,,,0.00,0.000000,,2013-10-29 09:02:00,
2013-10-29 03:43:00,18.0,11.0,-100.00,NW,312,2.0,4.0,75,0.00,,,0.00,0.000000,,2013-10-29 09:43:00,
2013-10-29 03:53:00,18.0,11.0,-100.00,NW,312,2.0,4.0,75,0.00,,,0.00,0.000000,,2013-10-29 09:53:00,
2013-10-29 04:02:00,18.0,11.0,-100.00,WNW,289,2.0,4.0,74,0.00,,,0.00,0.000000,,2013-10-29 10:02:00,
2013-10-29 04:42:00,18.0,11.0,-100.00,WNW,289,2.0,4.0,74,0.00,,,0.00,0.000000,,2013-10-29 10:42:00,
2013-10-29 04:53:00,18.0,11.0,-100.00,WNW,289,2.0,4.0,74,0.00,,,0.00,0.000000,,2013-10-29 10:53:00,
2013-10-29 05:42:00,18.0,11.0,-100.00,NW,320,1.0,2.0,75,0.00,,,-99.99,0.000000,,2013-10-29 11:42:00,
2013-10-29 05:52:00,18.0,11.0,-100.00,NW,320,1.0,2.0,75,0.00,,,-99.99,0.000000,,2013-10-29 11:52:00,
2013-10-29 06:01:00,18.0,11.0,-100.00,NW,320,1.0,2.0,75,0.00,,,-99.99,0.000000,,2013-10-29 12:01:00,
2013-10-29 07:42:00,17.0,10.0,-100.00,NNW,335,1.0,2.0,75,-99.99,,,0.00,0.000000,,2013-10-29 13:42:00,
2013-10-29 07:52:00,17.0,10.0,-100.00,NNW,335,1.0,2.0,75,-99.99,,,0.00,0.000000,,2013-10-29 13:52:00,
2013-10-29 08:01:00,17.0,10.0,-100.00,NNW,335,1.0,2.0,75,-99.99,,,0.00,0.000000,,2013-10-29 14:01:00,
2013-10-29 08:02:00,15.0,10.0,-100.00,WSW,258,2.0,3.0,80,0.00,,,0.00,0.000000,,2013-10-29 14:02:00,
2013-10-29 08:22:00,15.0,10.0,-100.00,WSW,258,2.0,3.0,80,0.00,,,0.00,0.000000,,2013-10-29 14:22:00,
2013-10-29 08:32:00,15.0,10.0,-100.00,WSW,258,2.0,3.0,80,0.00,,,0.00,0.000000,,2013-10-29 14:32:00,
2013-10-29 08:42:00,15.0,10.0,-100.00,WSW,258,2.0,3.0,80,0.00,,,0.00,0.000000,,2013-10-29 14:42:00,
2013-10-29 08:52:00,15.0,10.0,-100.00,WSW,258,2.0,3.0,80,0.00,,,0.00,0.000000,,2013-10-29 14:52:00,
2013-10-29 09:02:00,19.0,13.0,-100.00,NE,39,1.0,2.0,78,0.00,,,0.00,24.000000,,2013-10-29 15:02:00,
2013-10-29 09:22:00,19.0,13.0,-100.00,NE,39,1.0,2.0,78,0.00,,,0.00,24.000000,,2013-10-29 15:22:00,
2013-10-29 09:33:00,19.0,13.0,-100.00,NE,39,1.0,2.0,78,0.00,,,0.00,24.000000,,2013-10-29 15:33:00,
2013-10-29 09:44:00,19.0,13.0,-100.00,NE,39,1.0,2.0,78,0.00,,,0.00,24.000000,,2013-10-29 15:44:00,
2013-10-29 09:54:00,19.0,13.0,-100.00,NE,39,1.0,2.0,78,0.00,,,0.00,24.000000,,2013-10-29 15:54:00,
2013-10-29 10:02:00,25.0,14.0,-100.00,SSE,151,3.0,5.0,62,0.00,,,0.00,186.000000,,2013-10-29 16:02:00,
2013-10-29 10:43:00,25.0,14.0,-100.00,SSE,151,3.0,5.0,62,0.00,,,0.00,186.000000,,2013-10-29 16:43:00,
2013-10-29 10:53:00,25.0,14.0,-100.00,SSE,151,3.0,5.0,62,0.00,,,0.00,186.000000,,2013-10-29 16:53:00,
2013-10-29 11:42:00,25.0,14.0,-100.00,SSE,155,4.0,7.0,62,0.00,,,0.00,161.000000,,2013-10-29 17:42:00,
2013-10-29 11:52:00,25.0,14.0,-100.00,SSE,155,4.0,7.0,62,0.00,,,0.00,161.000000,,2013-10-29 17:52:00,
2013-10-29 12:01:00,25.0,14.0,-100.00,SSE,155,4.0,7.0,62,0.00,,,0.00,161.000000,,2013-10-29 18:01:00,
2013-10-29 12:02:00,28.0,15.0,-100.00,SSE,148,4.0,7.0,57,0.00,,,0.00,275.000000,,2013-10-29 18:02:00,
2013-10-29 12:22:00,28.0,15.0,-100.00,SSE,148,4.0,7.0,57,0.00,,,0.00,275.000000,,2013-10-29 18:22:00,
2013-10-29 12:32:00,28.0,15.0,-100.00,SSE,148,4.0,7.0,57,0.00,,,0.00,275.000000,,2013-10-29 18:32:00,
2013-10-29 12:42:00,28.0,15.0,-100.00,SSE,148,4.0,7.0,57,0.00,,,0.00,275.000000,,2013-10-29 18:42:00,
2013-10-29 12:52:00,28.0,15.0,-100.00,SSE,148,4.0,7.0,57,0.00,,,0.00,275.000000,,2013-10-29 18:52:00,
2013-10-29 13:02:00,30.0,15.0,-100.00,South,175,4.0,6.0,52,0.00,,,0.00,560.000000,,2013-10-29 19:02:00,
2013-10-29 13:22:00,30.0,15.0,-100.00,South,175,4.0,6.0,52,0.00,,,0.00,560.000000,,2013-10-29 19:22:00,
2013-10-29 13:32:00,30.0,15.0,-100.00,South,175,4.0,6.0,52,0.00,,,0.00,560.000000,,2013-10-29 19:32:00,
2013-10-29 13:42:00,30.0,15.0,-100.00,South,175,4.0,6.0,52,0.00,,,0.00,560.000000,,2013-10-29 19:42:00,
2013-10-29 13:53:00,30.0,15.0,-100.00,South,175,4.0,6.0,52,0.00,,,0.00,560.000000,,2013-10-29 19:53:00,
2013-10-29 14:22:00,33.0,15.0,-100.00,SE,145,4.0,7.0,47,0.00,,,0.00,580.000000,,2013-10-29 20:22:00,
2013-10-29 14:32:00,33.0,15.0,-100.00,SE,145,4.0,7.0,47,0.00,,,0.00,580.000000,,2013-10-29 20:32:00,
2013-10-29 14:42:00,33.0,15.0,-100.00,SE,145,4.0,7.0,47,0.00,,,0.00,580.000000,,2013-10-29 20:42:00,
2013-10-29 14:52:00,33.0,15.0,-100.00,SE,145,4.0,7.0,47,0.00,,,0.00,580.000000,,2013-10-29 20:52:00,
2013-10-29 15:01:00,33.0,15.0,-100.00,SE,145,4.0,7.0,47,0.00,,,0.00,580.000000,,2013-10-29 21:01:00,
2013-10-29 15:02:00,34.0,15.0,-100.00,ESE,103,3.0,6.0,46,0.00,,,0.00,539.000000,,2013-10-29 21:02:00,
2013-10-29 15:22:00,34.0,15.0,-100.00,ESE,103,3.0,6.0,46,0.00,,,0.00,539.000000,,2013-10-29 21:22:00,
2013-10-29 15:34:00,34.0,15.0,-100.00,ESE,103,3.0,6.0,46,0.00,,,0.00,539.000000,,2013-10-29 21:34:00,
2013-10-29 15:43:00,34.0,15.0,-100.00,ESE,103,3.0,6.0,46,0.00,,,0.00,539.000000,,2013-10-29 21:43:00,
2013-10-29 15:54:00,34.0,15.0,-100.00,ESE,103,3.0,6.0,46,0.00,,,0.00,539.000000,,2013-10-29 21:54:00,
2013-10-29 17:53:00,29.0,14.0,-100.00,NE,52,2.0,6.0,53,-99.99,,,0.00,28.000000,,2013-10-29 23:53:00,
2013-10-29 18:01:00,29.0,14.0,-100.00,NE,52,2.0,6.0,53,-99.99,,,0.00,28.000000,,2013-10-30 00:01:00,
2013-10-29 18:42:00,28.0,15.0,-100.00,NNW,330,2.0,3.0,57,-99.99,,,0.00,16.000000,,2013-10-30 00:42:00,
2013-10-29 18:52:00,28.0,15.0,-100.00,NNW,330,2.0,3.0,57,-99.99,,,0.00,16.000000,,2013-10-30 00:52:00,
2013-10-29 19:01:00,28.0,15.0,-100.00,NNW,330,2.0,3.0,57,-99.99,,,0.00,16.000000,,2013-10-30 01:01:00,
2013-10-29 19:02:00,28.0,17.0,-100.00,North,357,2.0,5.0,62,0.00,,,-99.99,4.000000,,2013-10-30 01:02:00,
2013-10-29 19:42:00,28.0,17.0,-100.00,North,357,2.0,5.0,62,0.00,,,-99.99,4.000000,,2013-10-30 01:42:00,
2013-10-29 19:52:00,28.0,17.0,-100.00,North,357,2.0,5.0,62,0.00,,,-99.99,4.000000,,2013-10-30 01:52:00,
2013-10-29 20:02:00,28.0,17.0,-100.00,NW,324,1.0,5.0,64,0.00,,,0.00,0.000000,,2013-10-30 02:02:00,
2013-10-29 20:42:00,28.0,17.0,-100.00,NW,324,1.0,5.0,64,0.00,,,0.00,0.000000,,2013-10-30 02:42:00,
2013-10-29 20:52:00,28.0,17.0,-100.00,NW,324,1.0,5.0,64,0.00,,,0.00,0.000000,,2013-10-30 02:52:00,
2013-10-29 21:02:00,28.0,17.0,-100.00,NNW,327,1.0,2.0,63,0.00,,,0.00,0.000000,,2013-10-30 03:02:00,
2013-10-29 21:44:00,28.0,17.0,-100.00,NNW,327,1.0,2.0,63,0.00,,,0.00,0.000000,,2013-10-30 03:44:00,
2013-10-29 21:54:00,28.0,17.0,-100.00,NNW,327,1.0,2.0,63,0.00,,,0.00,0.000000,,2013-10-30 03:54:00,
2013-10-29 22:02:00,28.0,17.0,-100.00,NW,306,2.0,3.0,64,0.00,,,0.00,0.000000,,2013-10-30 04:02:00,
2013-10-29 22:44:00,28.0,17.0,-100.00,NW,306,2.0,3.0,64,0.00,,,0.00,0.000000,,2013-10-30 04:44:00,
2013-10-29 22:53:00,28.0,17.0,-100.00,NW,306,2.0,3.0,64,0.00,,,0.00,0.000000,,2013-10-30 04:53:00,
2013-10-29 23:02:00,28.0,19.0,-100.00,WNW,297,2.0,2.0,69,0.00,,,0.00,0.000000,,2013-10-30 05:02:00,
2013-10-29 23:22:00,28.0,19.0,-100.00,WNW,297,2.0,2.0,69,0.00,,,0.00,0.000000,,2013-10-30 05:22:00,
2013-10-29 23:34:00,28.0,19.0,-100.00,WNW,297,2.0,2.0,69,0.00,,,0.00,0.000000,,2013-10-30 05:34:00,
2013-10-29 23:43:00,28.0,19.0,-100.00,WNW,297,2.0,2.0,69,0.00,,,0.00,0.000000,,2013-10-30 05:43:00,
2013-10-29 23:53:00,28.0,19.0,-100.00,WNW,297,2.0,2.0,69,0.00,,,0.00,0.000000,,2013-10-30 05:53:00,